User: anonymous   Login
Location: Unspecified
(0.0000°N, 0.0000°E)
Time: 14:00:13
(UTC+00:00)
Language:

DELFI C3 - Orbit

View from above orbital plane
View from above orbital plane
View from above satellite
View from above satellite

Ground track
Ground track

The orbit data is extracted from the following two-line orbital elements,

1 32789U 08021G   18050.70135049 +.00001827 +00000-0 +13024-3 0  9994
2 32789 097.5280 108.4166 0011820 345.0604 015.0272 15.05758209534104
Epoch (UTC): 19 February 2018 16:49:56
Eccentricity: 0.0011820
inclination: 97.5280°
perigee height: 541 km
apogee height: 557 km
right ascension of ascending node: 108.4166°
argument of perigee: 345.0604°
revolutions per day: 15.05758209
mean anomaly at epoch: 15.0272°
orbit number at epoch: 53410

The dashed part of the orbit path shows where the satellite is in the earth's shadow,  

DLR